Zurück zum Katalog

ARGOS

AktivWissenschaftSSO
NORAD 25634·PAYLOAD·🇺🇸 United States

Gestartet Feb 23, 1999 von Vandenberg Space Force Base

Loading…

Nächste Überflüge (nächste 24 Stunden)

TLE

AktuellSource: Space-Track

Epoche: Sep 14, 2026, 14:46 UTC

1 25634U 99008A   26257.61542273  .00000017  00000-0  27923-4 0  9993
2 25634  98.5241 220.3681 0010856 136.4874 223.7161 14.20001435426998

Verfolge ARGOS in Echtzeit mit AllMySat

Download on the App Store